DW7057 Vars FR current weather conditions

sailwx.info

Wind from 274 at 6 knots gusting 15

Air temperature 22.8° C
Dewpoint 19.5° C

Last reported at 2019-Aug-18 12:10 UTC.
Time now 2019-Aug-18 12:59 UTC

Location: N 45°45' E 000°07'.
View on Google Maps.

See reports from other nearby stations

  
Tides and Currents Weather Stations Pressure Air Temp Water Temp Dewpoint Dewpoint Depression Visibility Wind Speed Wind Dir Waves Ship Positions
date/time (UTC)wind fromknots sea level pressurealtimeterstation pressurevisibilityair tempwater tempwave heightnotes
2019-Aug-18 12:10 274 6 gusting 15 22.8
2019-Aug-18 12:05 278 10 gusting 15 23.3
2019-Aug-18 12:00 282 4 gusting 10 24.4
2019-Aug-18 11:50 266 5 gusting 13 24.4
2019-Aug-18 11:47 262 3 gusting 10 24.4
2019-Aug-18 11:41 271 2 gusting 8 24.4
2019-Aug-18 11:36 282 0 gusting 8 24.4
2019-Aug-18 11:33 245 3 gusting 7 24.4
2019-Aug-18 11:26 273 3 gusting 6 24.4
2019-Aug-18 11:20 243 2 gusting 7 23.9
2019-Aug-18 11:16 262 3 gusting 7 23.9
2019-Aug-18 11:11 270 4 gusting 8 23.9
2019-Aug-18 11:05 279 3 gusting 8 23.9
2019-Aug-18 11:01 274 3 gusting 9 24.4
2019-Aug-18 10:55 229 4 gusting 9 24.4
2019-Aug-18 10:51 283 3 gusting 9 24.4
2019-Aug-18 10:46 303 6 gusting 9 24.4
2019-Aug-18 10:40 151 3 gusting 9 24.4
2019-Aug-18 10:35 235 4 gusting 8 23.9
2019-Aug-18 10:31 259 3 gusting 8 23.9
2019-Aug-18 10:25 264 2 gusting 7 23.9
2019-Aug-18 10:21 256 4 gusting 7 23.9
2019-Aug-18 10:17 278 3 gusting 8 23.9
2019-Aug-18 10:11 273 4 gusting 8 23.9
2019-Aug-18 10:05 255 3 gusting 9 23.9
2019-Aug-18 10:01 264 4 gusting 9 24.4
2019-Aug-18 09:55 278 5 gusting 9 24.4
2019-Aug-18 09:50 272 5 gusting 9 24.4
2019-Aug-18 09:46 247 4 gusting 13 24.4
2019-Aug-18 09:40 239 5 gusting 13 23.9
2019-Aug-18 09:35 264 4 gusting 10 23.9
2019-Aug-18 09:31 260 4 gusting 8 23.9
2019-Aug-18 09:25 251 4 gusting 7 23.9
2019-Aug-18 09:20 271 3 gusting 9 23.3
2019-Aug-18 09:15 283 2 gusting 9 23.3
2019-Aug-18 09:10 246 4 gusting 10 23.3
2019-Aug-18 09:05 262 3 gusting 10 22.8
2019-Aug-18 09:01 282 3 gusting 7 22.8
2019-Aug-18 08:55 256 3 gusting 9 22.8
2019-Aug-18 08:50 283 3 gusting 9 22.2
2019-Aug-18 08:46 244 4 gusting 8 22.2
2019-Aug-18 08:40 273 2 gusting 8 22.2
2019-Aug-18 08:35 271 3 gusting 8 22.2
2019-Aug-18 08:30 274 4 gusting 8 22.2
2019-Aug-18 08:25 257 4 gusting 6 22.2
2019-Aug-18 08:20 277 2 gusting 6 21.7
2019-Aug-18 08:16 203 21.1
2019-Aug-18 08:10 145 1 gusting 5 21.1
2019-Aug-18 08:05 098 2 gusting 4 21.1
2019-Aug-18 08:01 110 1 gusting 4 20.6
2019-Aug-18 07:55 102 0 gusting 4 20.0
2019-Aug-18 07:50 091 2 gusting 3 20.0
2019-Aug-18 07:46 105 1 gusting 5 19.4
2019-Aug-18 07:40 105 1 gusting 5 18.9
2019-Aug-18 07:35 110 1 gusting 3 18.9
2019-Aug-18 07:31 108 1 gusting 3 18.3
2019-Aug-18 07:25 131 1 gusting 3 18.3
2019-Aug-18 07:20 126 0 gusting 3 18.3
2019-Aug-18 07:16 089 0 gusting 2 18.3
2019-Aug-18 07:10 098 18.3
2019-Aug-18 07:05 102 17.8
2019-Aug-18 07:01 091 17.8
2019-Aug-18 06:55 086 17.8
2019-Aug-18 06:50 120 0 gusting 2 17.2
2019-Aug-18 06:47 127 0 gusting 2 17.2
2019-Aug-18 06:40 119 17.2
2019-Aug-18 06:35 121 17.2
2019-Aug-18 06:31 124 17.2
2019-Aug-18 06:25 124 17.2
2019-Aug-18 06:20 124 17.2
2019-Aug-18 06:17 124 17.2
2019-Aug-18 06:10 122 17.2
2019-Aug-18 06:05 120 16.7
2019-Aug-18 06:01 120 16.7
2019-Aug-18 05:55 120 16.7
2019-Aug-18 05:50 120 16.7
2019-Aug-18 05:46 117 0 gusting 1 16.7
2019-Aug-18 05:41 110 16.7
2019-Aug-18 05:35 129 16.1
2019-Aug-18 05:30 129 16.1
2019-Aug-18 05:25 120 16.1
2019-Aug-18 05:20 117 16.1
2019-Aug-18 05:16 117 16.1
2019-Aug-18 05:10 116 16.1
2019-Aug-18 05:05 117 16.1
2019-Aug-18 05:01 093 16.1
2019-Aug-18 04:55 104 0 gusting 1 16.1
2019-Aug-18 04:50 103 0 gusting 1 16.1
2019-Aug-18 04:46 093 16.1
2019-Aug-18 04:40 093 16.1
2019-Aug-18 04:35 093 16.1
2019-Aug-18 04:31 093 16.1
2019-Aug-18 04:25 093 16.1
2019-Aug-18 04:20 093 16.1
2019-Aug-18 04:16 093 15.6
2019-Aug-18 04:10 093 16.1
2019-Aug-18 04:05 093 16.1
2019-Aug-18 04:00 098 16.1
2019-Aug-18 03:55 098 16.1
2019-Aug-18 03:50 098 16.1
2019-Aug-18 03:46 098 16.1
2019-Aug-18 03:40 098 16.1
2019-Aug-18 03:35 095 16.1
2019-Aug-18 03:31 095 16.1
2019-Aug-18 03:25 095 16.1
2019-Aug-18 03:20 092 16.1
2019-Aug-18 03:16 091 16.1
2019-Aug-18 03:10 091 0 gusting 1 16.1
2019-Aug-18 03:05 094 0 gusting 1 16.7
2019-Aug-18 03:00 124 16.7
2019-Aug-18 02:55 130 0 gusting 2 16.7
2019-Aug-18 02:50 316 17.2
2019-Aug-18 02:45 321 1 gusting 4 17.2
2019-Aug-18 02:40 316 2 gusting 4 17.2
2019-Aug-18 02:35 330 2 gusting 4 17.2
2019-Aug-18 02:30 340 1 gusting 3 17.2
2019-Aug-18 02:25 325 0 gusting 3 17.2
2019-Aug-18 02:20 309 1 gusting 2 17.2
2019-Aug-18 02:15 319 0 gusting 2 17.2
2019-Aug-18 02:10 308 0 gusting 2 17.2
2019-Aug-18 02:05 300 1 gusting 2 17.2
2019-Aug-18 02:00 111 17.2
2019-Aug-18 01:55 111 16.7
2019-Aug-18 01:50 111 17.2
2019-Aug-18 01:46 111 17.2
2019-Aug-18 01:40 111 17.2
2019-Aug-18 01:35 097 0 gusting 0 17.2
2019-Aug-18 01:30 084 16.7
2019-Aug-18 01:25 084 16.7
2019-Aug-18 01:20 082 0 gusting 1 16.7
2019-Aug-18 01:10 101 16.7
2019-Aug-18 01:05 101 16.7
2019-Aug-18 00:55 101 16.7
2019-Aug-18 00:50 101 16.7
2019-Aug-18 00:45 100 16.7
2019-Aug-18 00:40 102 16.7
2019-Aug-18 00:35 101 16.7
2019-Aug-18 00:30 101 16.7
2019-Aug-18 00:25 077 16.7
2019-Aug-18 00:20 072 17.2
2019-Aug-18 00:10 093 17.2
2019-Aug-18 00:05 093 17.2
2019-Aug-17 23:55 093 17.2
2019-Aug-17 23:50 093 17.2
2019-Aug-17 23:45 093 17.2
2019-Aug-17 23:40 093 17.2
2019-Aug-17 23:35 093 17.2
2019-Aug-17 23:30 093 17.2
2019-Aug-17 23:25 093 17.2
2019-Aug-17 23:20 093 17.8
2019-Aug-17 23:10 093 17.2
2019-Aug-17 23:05 076 17.2
2019-Aug-17 22:55 091 0 gusting 1 17.2
2019-Aug-17 22:50 269 17.2
2019-Aug-17 22:47 269 17.2
2019-Aug-17 22:40 269 17.2
2019-Aug-17 22:36 269 17.2
2019-Aug-17 22:32 269 17.2
2019-Aug-17 22:25 269 17.2
2019-Aug-17 22:20 269 17.2
2019-Aug-17 22:18 269 17.2
2019-Aug-17 22:11 269 17.8
2019-Aug-17 22:05 269 17.8
2019-Aug-17 22:01 269 17.8
2019-Aug-17 21:55 269 17.8
2019-Aug-17 21:50 269 17.8
2019-Aug-17 21:46 269 17.8
2019-Aug-17 21:40 269 18.3
2019-Aug-17 21:35 269 18.3
2019-Aug-17 21:31 269 18.3
2019-Aug-17 21:20 269 18.3
2019-Aug-17 21:17 269 18.3
2019-Aug-17 21:10 269 18.3
2019-Aug-17 21:05 269 18.3
2019-Aug-17 21:01 269 18.9
2019-Aug-17 20:55 269 18.9
2019-Aug-17 20:50 269 18.9
2019-Aug-17 20:45 269 18.9
2019-Aug-17 20:40 269 18.9
2019-Aug-17 20:35 269 19.4
2019-Aug-17 20:31 269 19.4
2019-Aug-17 20:25 269 19.4
2019-Aug-17 20:20 269 19.4
2019-Aug-17 20:17 269 20.0
2019-Aug-17 20:10 270 20.0
2019-Aug-17 20:05 270 20.6
2019-Aug-17 20:01 270 20.6
2019-Aug-17 19:55 270 20.6
2019-Aug-17 19:50 270 20.6
2019-Aug-17 19:46 269 20.6
2019-Aug-17 19:40 264 21.1
2019-Aug-17 19:35 289 0 gusting 1 21.1
2019-Aug-17 19:30 283 21.1
2019-Aug-17 19:25 274 21.1
2019-Aug-17 19:20 274 21.7
2019-Aug-17 19:16 274 0 gusting 3 21.7
2019-Aug-17 19:10 281 0 gusting 5 21.7
2019-Aug-17 19:05 286 2 gusting 5 21.7
2019-Aug-17 19:01 293 1 gusting 4 22.2
2019-Aug-17 18:55 283 2 gusting 4 22.2
2019-Aug-17 18:51 290 2 gusting 4 22.2
2019-Aug-17 18:46 300 2 gusting 6 22.8
2019-Aug-17 18:40 286 3 gusting 6 22.8
2019-Aug-17 18:35 278 4 gusting 6 23.3
2019-Aug-17 18:32 285 3 gusting 6 23.3
2019-Aug-17 18:25 282 4 gusting 6 23.3
2019-Aug-17 18:20 285 4 gusting 6 23.3
2019-Aug-17 18:16 293 4 gusting 6 23.9
2019-Aug-17 18:10 271 2 gusting 6 23.9
2019-Aug-17 18:05 269 3 gusting 6 23.9
2019-Aug-17 18:01 271 3 gusting 9 24.4
2019-Aug-17 17:55 288 3 gusting 9 24.4
2019-Aug-17 17:50 272 3 gusting 8 24.4
2019-Aug-17 17:46 274 4 gusting 8 24.4
2019-Aug-17 17:40 267 2 gusting 9 24.4
2019-Aug-17 17:35 277 3 gusting 9 24.4
2019-Aug-17 17:31 259 2 gusting 6 24.4
2019-Aug-17 17:25 252 1 gusting 8 24.4
2019-Aug-17 17:20 278 4 gusting 8 24.4
2019-Aug-17 17:16 276 4 gusting 8 24.4
2019-Aug-17 17:10 269 3 gusting 9 25.0
2019-Aug-17 17:05 257 4 gusting 9 25.0
2019-Aug-17 17:01 261 4 gusting 10 25.0
2019-Aug-17 16:55 283 4 gusting 12 25.6
2019-Aug-17 16:50 259 6 gusting 9 25.6
2019-Aug-17 16:46 289 4 gusting 9 26.1
2019-Aug-17 16:40 274 5 gusting 8 26.1
2019-Aug-17 16:35 250 5 gusting 10 26.1
2019-Aug-17 16:31 250 5 gusting 10 26.1
2019-Aug-17 16:25 263 5 gusting 9 26.1
2019-Aug-17 16:20 271 5 gusting 9 25.6
2019-Aug-17 16:16 255 3 gusting 11 25.6
2019-Aug-17 16:10 249 5 gusting 11 25.6
2019-Aug-17 16:05 263 2 gusting 7 26.1
2019-Aug-17 16:01 274 2 gusting 11 26.1
2019-Aug-17 15:55 223 3 gusting 11 25.6
2019-Aug-17 15:50 277 4 gusting 9 25.6
2019-Aug-17 15:46 209 5 gusting 10 25.6
2019-Aug-17 15:40 226 5 gusting 10 25.6
2019-Aug-17 15:35 262 4 gusting 10 25.6
2019-Aug-17 15:31 250 5 gusting 11 25.6
2019-Aug-17 15:25 244 5 gusting 11 26.1
2019-Aug-17 15:20 264 6 gusting 11 26.1
2019-Aug-17 15:16 259 6 gusting 11 26.1
2019-Aug-17 15:10 212 3 gusting 11 26.1
2019-Aug-17 15:05 304 5 gusting 12 26.1
2019-Aug-17 15:01 297 6 gusting 12 26.1
2019-Aug-17 14:55 240 4 gusting 11 26.1
2019-Aug-17 14:50 270 5 gusting 9 26.1
2019-Aug-17 14:46 223 2 gusting 11 26.1
2019-Aug-17 14:40 273 6 gusting 11 26.1
2019-Aug-17 14:35 218 3 gusting 11 25.6
2019-Aug-17 14:31 198 3 gusting 12 25.6
2019-Aug-17 14:25 263 6 gusting 12 25.6
2019-Aug-17 14:20 250 4 gusting 12 25.6
2019-Aug-17 14:16 264 3 gusting 12 25.6
2019-Aug-17 14:05 236 6 gusting 11 25.6
2019-Aug-17 14:01 224 5 gusting 11 25.6
2019-Aug-17 13:55 299 3 gusting 11 25.6
2019-Aug-17 13:50 118 6 gusting 11 25.6
2019-Aug-17 13:45 283 4 gusting 10 25.6
2019-Aug-17 13:40 245 3 gusting 13 25.6
2019-Aug-17 13:35 259 5 gusting 13 25.0
2019-Aug-17 13:31 272 5 gusting 10 25.0
2019-Aug-17 13:25 221 3 gusting 10 25.0
2019-Aug-17 13:20 225 3 gusting 10 25.0
2019-Aug-17 13:15 247 5 gusting 10 25.0
2019-Aug-17 13:10 240 5 gusting 10 25.0
2019-Aug-17 13:05 233 4 gusting 11 25.0
2019-Aug-17 13:01 245 5 gusting 11 25.0
2019-Aug-17 12:55 250 6 gusting 13 25.0
2019-Aug-17 12:50 252 6 gusting 13 25.0
2019-Aug-17 12:47 262 3 gusting 10 25.6
2019-Aug-17 12:40 258 3 gusting 9 26.1
2019-Aug-17 12:35 212 2 gusting 8 26.1
2019-Aug-17 12:32 210 2 gusting 12 26.1
2019-Aug-17 12:25 172 4 gusting 12 26.1
2019-Aug-17 12:20 205 3 gusting 10 26.1
2019-Aug-17 12:17 213 1 gusting 9 26.1
2019-Aug-17 12:10 106 3 gusting 9 25.6
2019-Aug-17 12:05 217 3 gusting 8 26.1
2019-Aug-17 12:01 258 0 gusting 7 25.6
2019-Aug-17 11:55 236 2 gusting 7 25.6
2019-Aug-17 11:50 245 2 gusting 7 25.6
2019-Aug-17 11:46 264 3 gusting 8 25.0
2019-Aug-17 11:40 280 3 gusting 8 25.0
2019-Aug-17 11:35 285 3 gusting 9 25.0
2019-Aug-17 11:31 224 4 gusting 9 25.0
2019-Aug-17 11:25 201 2 gusting 10 25.0
2019-Aug-17 11:20 179 4 gusting 12 25.0
2019-Aug-17 11:16 145 4 gusting 12 25.0
2019-Aug-17 11:10 242 5 gusting 10 25.0
2019-Aug-17 11:05 248 3 gusting 7 24.4
2019-Aug-17 11:02 266 2 gusting 7 23.9
2019-Aug-17 10:55 297 2 gusting 9 23.9
2019-Aug-17 10:50 200 3 gusting 9 23.9
2019-Aug-17 10:46 110 2 gusting 8 23.9
2019-Aug-17 10:40 159 4 gusting 11 23.3
2019-Aug-17 10:36 161 3 gusting 8 23.3
2019-Aug-17 10:31 209 2 gusting 6 23.3
2019-Aug-17 10:25 169 0 gusting 6 23.3
2019-Aug-17 10:20 069 3 gusting 10 22.8
2019-Aug-17 10:17 146 1 gusting 10 22.8
2019-Aug-17 10:10 114 3 gusting 8 22.8
2019-Aug-17 10:06 308 2 gusting 12 22.8
2019-Aug-17 10:03 166 3 gusting 12 22.2
2019-Aug-17 09:55 251 2 gusting 8 22.2
2019-Aug-17 09:50 181 1 gusting 7 21.7
2019-Aug-17 09:47 082 1 gusting 7 21.7
2019-Aug-17 09:40 082 1 gusting 6 21.7
2019-Aug-17 09:35 145 1 gusting 7 21.7
2019-Aug-17 09:31 166 1 gusting 7 21.1
2019-Aug-17 09:25 233 1 gusting 6 21.1
2019-Aug-17 09:20 208 1 gusting 6 21.1
2019-Aug-17 09:16 179 0 gusting 7 21.1
2019-Aug-17 09:10 212 0 gusting 4 21.1
2019-Aug-17 09:05 195 0 gusting 6 21.1
2019-Aug-17 09:00 122 2 gusting 6 21.1
2019-Aug-17 08:55 137 2 gusting 6 21.7
2019-Aug-17 08:50 190 1 gusting 9 21.7
2019-Aug-17 08:46 150 3 gusting 9 21.7
2019-Aug-17 08:40 098 1 gusting 6 21.7
2019-Aug-17 08:35 226 1 gusting 6 21.1
2019-Aug-17 08:30 170 21.1
2019-Aug-17 08:25 246 0 gusting 6 21.1
2019-Aug-17 08:20 144 3 gusting 6 20.6
2019-Aug-17 08:17 093 2 gusting 7 20.6
2019-Aug-17 08:10 125 2 gusting 7 20.6
2019-Aug-17 08:05 064 3 gusting 6 20.6
2019-Aug-17 08:01 122 3 gusting 9 20.0
2019-Aug-17 07:55 129 3 gusting 11 20.0
2019-Aug-17 07:50 151 2 gusting 11 19.4
2019-Aug-17 07:45 103 3 gusting 8 19.4
2019-Aug-17 07:40 089 4 gusting 9 18.9
2019-Aug-17 07:35 132 3 gusting 9 19.4
2019-Aug-17 07:30 148 3 gusting 7 19.4
2019-Aug-17 07:25 135 2 gusting 6 18.9
2019-Aug-17 07:20 113 3 gusting 6 18.9
2019-Aug-17 07:16 086 3 gusting 6 18.9
2019-Aug-17 07:10 068 3 gusting 6 18.9
2019-Aug-17 07:05 072 1 gusting 8 18.3
2019-Aug-17 07:01 101 1 gusting 9 18.3
2019-Aug-17 06:55 154 3 gusting 9 17.8
2019-Aug-17 06:50 115 4 gusting 8 17.8
2019-Aug-17 06:46 099 3 gusting 7 17.8
2019-Aug-17 06:40 116 3 gusting 6 17.2
2019-Aug-17 06:35 086 3 gusting 6 17.2
2019-Aug-17 06:30 077 2 17.2
2019-Aug-17 06:25 118 0 gusting 4 17.2
2019-Aug-17 06:20 122 1 gusting 3 17.2
2019-Aug-17 06:16 116 1 gusting 3 16.7
2019-Aug-17 06:11 111 0 gusting 4 16.7
2019-Aug-17 06:05 113 1 gusting 4 16.7
2019-Aug-17 06:01 102 1 gusting 3 16.7
2019-Aug-17 05:55 112 1 gusting 4 16.7
2019-Aug-17 05:50 115 1 gusting 6 16.7
2019-Aug-17 05:46 129 1 gusting 6 16.7
2019-Aug-17 05:40 094 1 gusting 4 16.7
2019-Aug-17 05:36 113 2 gusting 5 16.7
2019-Aug-17 05:31 100 2 gusting 5 16.7
2019-Aug-17 05:25 130 2 gusting 4 16.1
2019-Aug-17 05:20 119 1 gusting 4 16.1
2019-Aug-17 05:16 079 1 gusting 4 16.1
2019-Aug-17 05:10 147 0 gusting 5 16.1
2019-Aug-17 05:05 127 2 gusting 5 16.1
2019-Aug-17 05:01 113 2 gusting 5 16.1
2019-Aug-17 04:55 162 2 gusting 5 16.1
2019-Aug-17 04:50 131 1 gusting 4 15.6
2019-Aug-17 04:46 139 0 gusting 3 15.6
2019-Aug-17 04:40 122 0 gusting 2 15.6
2019-Aug-17 04:35 107 0 gusting 3 15.6
2019-Aug-17 04:30 098 0 gusting 3 15.6
2019-Aug-17 04:25 086 0 gusting 1 15.6
2019-Aug-17 04:20 115 15.6
2019-Aug-17 04:15 115 15.6
2019-Aug-17 04:10 118 15.6
2019-Aug-17 04:05 119 15.6
2019-Aug-17 03:55 096 0 gusting 1 15.6
2019-Aug-17 03:50 098 15.6
2019-Aug-17 03:45 129 15.6
2019-Aug-17 03:40 129 15.6
2019-Aug-17 03:35 136 15.6
2019-Aug-17 03:25 115 15.6
2019-Aug-17 03:20 115 0 gusting 3 15.6
2019-Aug-17 03:15 122 0 gusting 3 15.6
2019-Aug-17 03:10 121 0 gusting 3 15.0
2019-Aug-17 03:05 122 0 gusting 2 15.0
2019-Aug-17 03:00 157 15.0
2019-Aug-17 02:55 101 15.0
2019-Aug-17 02:50 143 15.0
2019-Aug-17 02:45 129 15.0
2019-Aug-17 02:40 129 15.0
2019-Aug-17 02:35 119 0 gusting 1 15.0
2019-Aug-17 02:30 120 0 gusting 1 15.0
2019-Aug-17 02:25 131 0 gusting 2 15.0
2019-Aug-17 02:20 134 0 gusting 2 15.0
2019-Aug-17 02:15 104 0 gusting 1 15.0
2019-Aug-17 02:10 122 15.0
2019-Aug-17 01:56 119 0 gusting 3 14.4
2019-Aug-17 01:51 129 13.9
2019-Aug-17 01:47 106 0 gusting 1 13.9
2019-Aug-17 01:40 109 13.9
2019-Aug-17 01:36 081 13.9
2019-Aug-17 01:31 075 0 gusting 1 13.9
2019-Aug-17 01:26 091 13.9
2019-Aug-17 01:20 092 13.9
2019-Aug-17 01:16 090 0 gusting 1 13.9
2019-Aug-17 01:10 089 13.9
2019-Aug-17 01:06 089 14.4
2019-Aug-17 01:03 089 14.4
2019-Aug-17 00:56 089 14.4
2019-Aug-17 00:50 089 14.4
2019-Aug-17 00:47 089 13.9
2019-Aug-17 00:40 089 13.9
2019-Aug-17 00:35 089 14.4
2019-Aug-17 00:31 089 14.4
2019-Aug-17 00:25 089 14.4
2019-Aug-17 00:21 089 14.4
2019-Aug-17 00:16 089 14.4
2019-Aug-17 00:10 089 14.4
2019-Aug-17 00:05 089 14.4
2019-Aug-17 00:02 089 14.4
2019-Aug-16 23:55 089 14.4
2019-Aug-16 23:50 089 14.4
2019-Aug-16 23:46 089 15.0
2019-Aug-16 23:40 089 15.0
2019-Aug-16 23:35 089 15.0
2019-Aug-16 23:31 089 15.0
2019-Aug-16 23:25 089 15.0
2019-Aug-16 23:20 089 15.0
2019-Aug-16 23:17 089 15.0
2019-Aug-16 23:10 089 15.0
2019-Aug-16 23:05 089 15.0
2019-Aug-16 23:02 089 15.0
2019-Aug-16 22:55 089 15.0
2019-Aug-16 22:50 089 15.0
2019-Aug-16 22:46 089 15.0
2019-Aug-16 22:40 089 15.6
2019-Aug-16 22:35 089 15.6
2019-Aug-16 22:31 089 15.6
2019-Aug-16 22:25 089 15.6
2019-Aug-16 22:20 089 15.6
2019-Aug-16 22:16 089 15.6
2019-Aug-16 22:10 089 15.6
2019-Aug-16 22:05 089 16.1
2019-Aug-16 22:01 089 16.1
2019-Aug-16 21:55 089 16.1
2019-Aug-16 21:50 089 16.1
2019-Aug-16 21:46 089 16.1
2019-Aug-16 21:40 282 16.1
2019-Aug-16 21:35 282 16.1
2019-Aug-16 21:31 282 16.1
2019-Aug-16 21:25 282 16.7
2019-Aug-16 21:20 282 16.7
2019-Aug-16 21:16 282 16.7
2019-Aug-16 21:10 282 16.7
2019-Aug-16 21:05 282 16.7
2019-Aug-16 21:02 282 16.7
2019-Aug-16 20:55 282 17.2
2019-Aug-16 20:50 282 17.2
2019-Aug-16 20:46 282 17.2
2019-Aug-16 20:40 282 17.8
2019-Aug-16 20:35 282 17.8
2019-Aug-16 20:31 282 18.3
2019-Aug-16 20:25 282 18.3
2019-Aug-16 20:20 282 18.9
2019-Aug-16 20:17 282 18.9
2019-Aug-16 20:10 282 19.4
2019-Aug-16 20:05 282 19.4
2019-Aug-16 20:01 293 1 gusting 3 19.4
2019-Aug-16 19:55 292 1 gusting 4 20.0
2019-Aug-16 19:50 281 2 gusting 4 20.0
2019-Aug-16 19:40 282 1 gusting 4 19.4
2019-Aug-16 19:35 277 19.4
2019-Aug-16 19:31 278 0 gusting 1 20.0
2019-Aug-16 19:25 265 0 gusting 2 20.0
2019-Aug-16 19:20 271 1 gusting 2 20.6
2019-Aug-16 19:16 277 0 gusting 2 20.6
2019-Aug-16 19:10 281 0 gusting 1 21.1
2019-Aug-16 19:05 268 21.7
2019-Aug-16 19:01 279 22.2
2019-Aug-16 18:55 262 0 gusting 3 22.2
2019-Aug-16 18:50 279 1 gusting 3 22.8
2019-Aug-16 18:45 262 1 gusting 3 23.3
2019-Aug-16 18:40 283 1 gusting 3 23.9
2019-Aug-16 18:35 276 1 gusting 2 24.4
2019-Aug-16 18:30 282 0 gusting 2 24.4
2019-Aug-16 18:25 276 0 gusting 2 25.0
2019-Aug-16 18:20 265 0 gusting 2 25.0
2019-Aug-16 18:16 274 0 gusting 3 25.0
2019-Aug-16 18:10 277 0 gusting 3 24.4
2019-Aug-16 18:05 254 0 gusting 1 24.4
2019-Aug-16 18:01 243 25.0
2019-Aug-16 17:55 252 24.4
2019-Aug-16 17:50 266 1 gusting 2 24.4
2019-Aug-16 17:45 256 1 gusting 2 24.4
2019-Aug-16 17:40 257 24.4
2019-Aug-16 17:35 288 0 gusting 5 24.4
2019-Aug-16 17:25 276 2 gusting 4 25.0
2019-Aug-16 17:20 249 1 gusting 4 25.0
2019-Aug-16 17:15 262 0 gusting 3 25.6
2019-Aug-16 17:10 251 0 gusting 3 25.6
2019-Aug-16 17:05 221 0 gusting 3 26.1
2019-Aug-16 17:00 232 0 gusting 3 26.7
2019-Aug-16 16:55 289 1 gusting 5 26.7
2019-Aug-16 16:50 251 1 gusting 5 26.7
2019-Aug-16 16:45 259 1 gusting 6 26.7
2019-Aug-16 16:40 257 2 gusting 6 26.7
2019-Aug-16 16:35 262 2 gusting 6 26.7
2019-Aug-16 16:30 236 1 gusting 5 27.2
2019-Aug-16 16:25 219 2 gusting 5 27.2
2019-Aug-16 16:20 211 0 gusting 6 27.2
2019-Aug-16 16:16 231 1 gusting 6 26.7
2019-Aug-16 16:10 252 1 gusting 5 26.7
2019-Aug-16 16:05 239 2 gusting 4 26.7
2019-Aug-16 16:00 184 0 gusting 4 26.7
2019-Aug-16 15:55 223 0 gusting 5 26.7
2019-Aug-16 15:50 272 1 gusting 5 26.7
2019-Aug-16 15:45 243 2 gusting 5 26.7
2019-Aug-16 15:40 242 2 gusting 5 26.1
2019-Aug-16 15:35 207 0 gusting 5 26.1
2019-Aug-16 15:30 245 1 gusting 5 26.1
2019-Aug-16 15:25 085 0 gusting 6 26.1
2019-Aug-16 15:20 143 2 gusting 6 25.6
2019-Aug-16 15:15 144 2 gusting 5 26.1
2019-Aug-16 15:10 120 2 gusting 5 26.7
2019-Aug-16 15:05 181 1 gusting 5 26.7
2019-Aug-16 15:00 219 2 gusting 5 26.7
2019-Aug-16 14:55 093 0 gusting 5 26.1
2019-Aug-16 14:50 113 1 gusting 4 26.7
2019-Aug-16 14:45 278 1 gusting 4 26.7
2019-Aug-16 14:35 249 1 gusting 4 26.7
2019-Aug-16 14:25 223 1 gusting 4 26.7
2019-Aug-16 14:20 250 26.1
2019-Aug-16 14:10 143 0 gusting 5 26.1
2019-Aug-16 14:05 272 1 gusting 6 26.1
2019-Aug-16 14:00 211 2 gusting 6 26.1
2019-Aug-16 13:55 219 1 gusting 6 26.1
2019-Aug-16 13:50 125 1 gusting 5 26.7
2019-Aug-16 13:41 231 0 gusting 5 25.6
2019-Aug-16 13:35 088 1 gusting 5 25.6
2019-Aug-16 13:32 142 1 gusting 5 25.6
2019-Aug-16 13:25 152 1 gusting 5 25.6
2019-Aug-16 13:20 200 2 gusting 5 25.6
2019-Aug-16 13:18 215 25.0
2019-Aug-16 13:10 278 2 gusting 6 25.0
2019-Aug-16 13:06 283 2 gusting 6 25.6
2019-Aug-16 13:02 139 0 gusting 6 25.6
2019-Aug-16 12:55 238 0 gusting 6 25.0
2019-Aug-16 12:51 085 0 gusting 6 24.4
2019-Aug-16 12:46 106 1 gusting 6 24.4
2019-Aug-16 12:40 096 1 gusting 6 24.4
2019-Aug-16 12:35 322 1 gusting 6 24.4
2019-Aug-16 12:32 111 1 gusting 4 25.0
2019-Aug-16 12:25 132 0 gusting 6 24.4
2019-Aug-16 12:20 172 2 gusting 6 24.4
2019-Aug-16 12:15 092 1 gusting 4 25.0
2019-Aug-16 12:10 139 1 gusting 5 24.4
2019-Aug-16 12:05 122 2 gusting 5 23.9
2019-Aug-16 12:01 250 0 gusting 4 23.9